Location: Bukovany
(49.8234°N, 14.6297°E)
Time: 17:21:22
(UTC+00:00)

SKYMED 2 - Pass Details

Date: 17 November 2025
Orbit: 621 x 623 km, 97.9° (Epoch: 09 December)

Event Time Altitude Azimuth Distance (km) Brightness Sun altitude
Exits shadow 17:44:59 15° 3° (N) 1,679 5.7 -23.9°
Maximum altitude 17:48:24 54° 289° (WNW) 765 4.2 -24.4°
Drops below altitude 10° 17:52:37 10° 213° (SSW) 1,988 6.5 -25.1°
Sets 17:54:49 0° 209° (SSW) 2,890 7.4 -25.5°
